Regional Weather Roundup
Issued by NWS

Home | Current Version | Previous Version | Text Only | Print | Product List | Glossary On
Versions: 1 2 3 4 5 6 7 8 9 10 11 12 13 14 15 16 17 18 19 20 21 22 23 24 25 26 27 28 29 30 31 32 33 34 35 36 37 38 39 40 41 42 43 44 45 46 47 48 49 50
000
ASUS43 KDMX 031206
RWRIA

WEATHER ROUNDUP FOR IOWA
NATIONAL WEATHER SERVICE DES MOINES IA
700 AM CDT TUE AUG 03 2021

NOTE: "FAIR" INDICATES FEW OR NO CLOUDS BELOW 12,000 FEET WITH NO
SIGNIFICANT WEATHER AND/OR OBSTRUCTIONS TO VISIBILITY.

* - THESE STATIONS ARE NOT NWS STATIONS...THUS NOT UNDER NWS
QUALITY CONTROL.  THEY ALSO DO NOT REPORT WEATHER SUCH
AS PRECIPITATION OR FOG.

IAZ001>003-012>014-020>022-031>034-043>046-031300-
   NORTHWEST IOWA

CITY           SKY/WX    TMP DP  RH WIND       PRES   REMARKS
CARROLL *      CLEAR     52  52 100 W5        30.14R FOG
CHEROKEE *     PTCLDY    53  53 100 CALM      30.15R
DENISON *      PTCLDY    54  54 100 CALM      30.16S
LE MARS *      PTCLDY    54  52  94 CALM      30.12S FOG
SHELDON *        N/A    N/A N/A N/A MISG        N/A
SIOUX CITY     CLEAR    N/A N/A N/A MISG      30.13S
SPENCER        PTCLDY    55  52  89 S5        30.15R FOG
6HR MIN TEMP:  52; 6HR MAX TEMP:  59;

STORM LAKE *   PTCLDY    57  57 100 SW6       30.15R
$$

IAZ055>058-069>071-079>083-090>094-031300-
   SOUTHWEST IOWA

CITY           SKY/WX    TMP DP  RH WIND       PRES   REMARKS
ATLANTIC *     CLEAR     54  54 100 CALM      30.15R
AUDUBON *      CLEAR     52  48  87 CALM      30.16S
CLARINDA *     CLEAR     55  55 100 CALM      30.16R FOG
COUNCIL BLFS * CLEAR     61  57  88 SE5       30.13S
CRESTON *      CLEAR     57  57 100 CALM      30.15S
HARLAN  *      CLEAR     54  54 100 CALM      30.15S FOG
LAMONI         CLEAR     59  57  93 CALM      30.15R
6HR MIN TEMP:  58; 6HR MAX TEMP:  66;

RED OAK *      CLEAR     55  55 100 CALM      30.15R
SHENANDOAH *   CLEAR     55  55 100 CALM      30.14R
$$

IAZ047>049-059>061-072>074-084-031300-
   CENTRAL IOWA

CITY           SKY/WX    TMP DP  RH WIND       PRES   REMARKS
AMES           CLEAR     54  52  93 CALM      30.14S
6HR MIN TEMP:  52; 6HR MAX TEMP:  58;

ANKENY *       CLEAR     55  54  94 CALM      30.15S
BOONE *        CLEAR     57  57 100 CALM      30.16R
CHARITON *     CLEAR     59  57  94 CALM      30.14R
DES MOINES     PTCLDY    60  57  89 W3        30.13S
6HR MIN TEMP:  60; 6HR MAX TEMP:  67;

GRINNELL*      CLEAR     61  58  90 CALM      30.15S
KNOXVILLE *    CLEAR     59  57  94 CALM      30.14S
MARSHALLTOWN   CLEAR     54  52  93 NW3       30.14R
6HR MIN TEMP:  50; 6HR MAX TEMP:  58;

NEWTON *       CLEAR     55  55 100 CALM      30.14R
PELLA *          N/A     58  56  94 CALM      30.15S
PERRY *        FAIR      54  54 100 CALM      30.14S
$$

IAZ004>006-015-016-023>025-035-036-031300-
   NORTH CENTRAL IOWA

CITY           SKY/WX    TMP DP  RH WIND       PRES   REMARKS
ALGONA *       CLEAR     57  57 100 CALM      30.13S
CLARION *      CLEAR     52  52 100 CALM      30.15S
ESTHERVILLE    PTCLDY    56  53  90 S7        30.14R
6HR MIN TEMP:  54; 6HR MAX TEMP:  59;

FORT DODGE *   CLEAR     54  53  97 CALM      30.15S
MASON CITY     CLEAR     53  50  89 CALM      30.16R
6HR MIN TEMP:  51; 6HR MAX TEMP:  57;

FOREST CITY *  FAIR     N/A N/A N/A CALM      30.15R
WEBSTER CITY * FOG       52  52 100 CALM      30.13S VSB 1/2
IOWA FALLS *   FAIR      55  53  94 CALM      30.16S
$$

IAZ007>011-017>019-026>030-037>042-050>054-066-031300-
   NORTHEAST IOWA

CITY           SKY/WX    TMP DP  RH WIND       PRES   REMARKS
CEDAR RAPIDS   CLEAR     56  52  86 CALM      30.13S
6HR MIN TEMP:  52; 6HR MAX TEMP:  61;

CHARLES CITY * CLEAR     55  55 100 CALM      30.14S
CLINTON *      SUNNY     56  56 100 CALM      30.14R
DECORAH *      CLEAR     57  57 100 CALM      30.12S FOG
DUBUQUE        CLEAR     57  54  89 CALM      30.14S
6HR MIN TEMP:  53; 6HR MAX TEMP:  58;

MONTICELLO *   CLEAR     52  52 100 CALM      30.13S
OELWEIN *      CLEAR     55  54  94 CALM      30.15R
WATERLOO       CLEAR     54  51  90 CALM      30.13S
6HR MIN TEMP:  52; 6HR MAX TEMP:  59;

$$

IAZ064-065-067-068-078-031300-
   EAST CENTRAL IOWA

CITY           SKY/WX    TMP DP  RH WIND       PRES   REMARKS
DAVENPORT      CLEAR     55  54  96 CALM      30.15R
6HR MIN TEMP:  51; 6HR MAX TEMP:  56;

IOWA CITY      CLEAR     58  54  86 CALM      30.14S
6HR MIN TEMP:  56; 6HR MAX TEMP:  61;

MT. PLEASANT * CLEAR     59  59 100 CALM      30.13S
MUSCATINE *    CLEAR     57  57 100 CALM      30.13S
QUAD CITIES    CLEAR     58  55  90 CALM      30.12S
6HR MIN TEMP:  56; 6HR MAX TEMP:  60;

$$

IAZ062-063-075>077-085>089-095>099-031300-
   SOUTHEAST IOWA

CITY           SKY/WX    TMP DP  RH WIND       PRES   REMARKS
BURLINGTON     CLEAR     59  59 100 CALM      30.12S FOG
6HR MIN TEMP:  57; 6HR MAX TEMP:  61;

FAIRFIELD *    CLEAR     57  57 100 NW6       30.13S
FORT MADISON *   N/A     61  61 100 CALM      30.13S
KEOKUK *         N/A     59  59 100 CALM      30.13R
OSKALOOSA *    FAIR      58  57  96 CALM      30.14S
OTTUMWA        CLEAR     58  58 100 NW5       30.13F
6HR MIN TEMP:  54; 6HR MAX TEMP:  59;

WASHINGTON *   CLEAR     59  59 100 NW3       30.12S
$$

ABBREVIATIONS USED IN REMARKS
   TC - TEMPERATURES IN CELSIUS
  WCI - WIND CHILL INDEX
   HX - HEAT INDEX
  VSB - VISIBILITY
$$




USA.gov is the U.S. government's official web portal to all federal, state and local government web resources and services.